Regional Weather Roundup
Issued by NWS Cleveland, OH

Home | Current Version | Previous Version | Graphics & Text | Print | Product List | Glossary On
Versions: 1 2 3 4 5 6 7 8 9 10 11 12 13 14 15 16 17 18 19 20 21 22 23 24 25 26 27 28 29 30 31 32 33 34 35 36 37 38 39 40 41 42 43 44 45 46 47 48 49 50
000
ASUS41 KCLE 252302
RWRCLE
OHIO REGIONAL WEATHER ROUNDUP
NATIONAL WEATHER SERVICE CLEVELAND, OH
700 PM EDT SAT MAR 25 2017

NOTE: "FAIR" INDICATES FEW OR NO CLOUDS BELOW 12,000 FEET WITH NO
SIGNIFICANT WEATHER AND/OR OBSTRUCTIONS TO VISIBILITY.

OHZ001>008-015>018-024>027-034-035-043-044-260000-
   NORTHWEST OHIO

CITY           SKY/WX    TMP DP  RH WIND       PRES   REMARKS
DEFIANCE       CLOUDY    44  39  82 NE15G23   30.10S
FINDLAY        CLOUDY    49  40  71 NE14      30.08S
TOLEDO EXPRESS CLOUDY    40  36  86 NE20      30.13F
TOLEDO EXEC    CLOUDY    39  37  92 NE17G24   30.16S
LIMA           CLOUDY    61  51  70 E14       30.05S
$$

OHZ009>014-019>023-028>033-038-089-260000-
   NORTHEAST OHIO

CITY           SKY/WX    TMP DP  RH WIND       PRES   REMARKS
CLE-HOPKINS    CLOUDY    44  36  73 N12       30.17S
CLE-LAKEFRONT  CLOUDY    40  37  89 NE21      30.14F
CUY CO. ARPT   CLOUDY    48  41  76 E14       30.16S
LORAIN-ELYRIA  MOCLDY    42  36  79 NE13      30.14S
ASHTABULA      MOCLDY    41  36  82 NE6       30.21R
AKRON-CANTON   CLOUDY    64  50  60 NE8       30.13S
WOOSTER        CLOUDY    65  52  62 E8        30.11S
MANSFIELD      CLOUDY    64  53  67 MISG      30.10S
YOUNGSTOWN     CLOUDY    61  49  64 E5        30.16R
$$

OHZ042-051>053-060>062-070>072-077>081-260000-
  SOUTHWEST OHIO

CITY           SKY/WX    TMP DP  RH WIND       PRES   REMARKS
CINC-COVINGTON CLOUDY    73  51  46 S15G23    30.00S
CINC-LUNKEN    MOCLDY    73  52  47 SE5       30.01S
HAMILTON       CLOUDY    74  52  46 VRB7G16   30.01F
DAYTON         CLOUDY    69  50  50 SE13      30.03S
WRIGHT-PAT AFB MOCLDY    71  50  48 SE8       30.03S
DAYTON GENERAL CLOUDY    70  51  51 SE8       30.02S
WILMINGTON     PTCLDY    68  52  56 SE6       30.05S
$$

OHZ036-037-039>041-045>050-054>059-063>069-073>076-082>088-260000-
  CENTRAL AND SOUTHEAST OHIO

CITY           SKY/WX    TMP DP  RH WIND       PRES   REMARKS
COLUMBUS       CLOUDY    74  50  42 S6        30.06F
OSU AIRPORT    PTCLDY    72  51  47 SE8       30.06F
BOLTON FIELD   CLEAR     72  54  53 S9        30.07S
RICKENBACK AFB CLOUDY    72  51  47 SE5       30.06S
NEWARK         CLOUDY    73  50  44 SE3       30.07S
MARION         CLOUDY    71  51  49 S8        30.07F
LANCASTER      MOCLDY    73  50  44 SE8       30.08R
ZANESVILLE     CLOUDY    72  50  45 E7        30.09S
NEW PHILLY     NOT AVBL
$$



USA.gov is the U.S. government's official web portal to all federal, state and local government web resources and services.